AEA3LB LEGE-LPPT

Flight info

Callsign AEA3LB
Flight time N/A
Altitude 29000
Route MAMUK L110 SEROX/N0463F350 N860 CRETA Z596 NEXAS N975 CJN/N0366F130 N975 CCS DCT ELVAR DCT BIRBA DCT UPULO
Aircraft B738/M-SDE2E3FGHIRWXY/LB1

Departure

Time 2026-04-30 12:00
Airport Girona-Costa Brava Airport (LEGE)

Arrival

Time N/A
Airport Lisbon Humberto Delgado Airport (LPPT)
Time Latitude Longitude Altitude Speed Heading
2026-04-30 11:40 41.89811 2.76458 473 ft 0 kts 105°
2026-04-30 11:53 41.89813 2.76443 473 ft 2 kts 100°
2026-04-30 11:53 41.89817 2.76424 473 ft 2 kts 108°
2026-04-30 11:53 41.89820 2.76411 473 ft 2 kts 102°
2026-04-30 11:54 41.89817 2.76391 473 ft 2 kts 55°
2026-04-30 11:54 41.89807 2.76379 473 ft 0 kts 20°
2026-04-30 11:54 41.89801 2.76377 473 ft 1 kts 13°
2026-04-30 11:54 41.89799 2.76377 473 ft 0 kts 15°
2026-04-30 11:57 41.89800 2.76377 473 ft 1 kts 15°
2026-04-30 11:57 41.89824 2.76386 473 ft 5 kts 16°
2026-04-30 11:57 41.89874 2.76365 473 ft 11 kts 310°
2026-04-30 11:58 41.89908 2.76246 473 ft 13 kts 277°
2026-04-30 11:58 41.89825 2.76184 473 ft 17 kts 196°
2026-04-30 11:58 41.89687 2.76130 473 ft 21 kts 196°
2026-04-30 11:58 41.89600 2.76097 473 ft 9 kts 200°
2026-04-30 11:59 41.89541 2.76016 473 ft 14 kts 237°
2026-04-30 11:59 41.89506 2.75898 473 ft 13 kts 269°
2026-04-30 11:59 41.89536 2.75844 473 ft 6 kts
2026-04-30 11:59 41.89558 2.75851 473 ft 5 kts 16°
2026-04-30 12:00 41.89794 2.75941 473 ft 70 kts 16°
2026-04-30 12:00 41.90488 2.76203 473 ft 130 kts 16°
2026-04-30 12:00 41.91536 2.76598 593 ft 170 kts 15°
2026-04-30 12:00 41.92679 2.77034 1217 ft 175 kts 16°
2026-04-30 12:01 41.93856 2.77476 1902 ft 177 kts 15°
2026-04-30 12:01 41.95061 2.77917 2548 ft 179 kts 15°
2026-04-30 12:01 41.96267 2.78382 3076 ft 181 kts 16°
2026-04-30 12:01 41.97476 2.78859 3597 ft 182 kts 17°
2026-04-30 12:02 41.98698 2.79350 4101 ft 184 kts 17°
2026-04-30 12:02 41.99951 2.79844 4479 ft 193 kts 16°
2026-04-30 12:02 42.01302 2.80353 4815 ft 206 kts 15°
2026-04-30 12:02 42.02734 2.80889 5118 ft 222 kts 16°
2026-04-30 12:03 42.04316 2.81496 5421 ft 241 kts 16°
2026-04-30 12:03 42.07597 2.82525 6887 ft 237 kts 357°
2026-04-30 12:03 42.09203 2.82025 7457 ft 241 kts 334°
2026-04-30 12:04 42.10571 2.80711 7980 ft 246 kts 311°
2026-04-30 12:04 42.11481 2.78851 8588 ft 247 kts 292°
2026-04-30 12:04 42.11914 2.76676 9143 ft 250 kts 275°
2026-04-30 12:04 42.11780 2.74344 9702 ft 252 kts 252°
2026-04-30 12:05 42.10971 2.72236 10290 ft 254 kts 234°
2026-04-30 12:05 42.09901 2.70335 10858 ft 256 kts 233°
2026-04-30 12:05 42.08804 2.68392 11459 ft 258 kts 233°
2026-04-30 12:05 42.07721 2.66431 12049 ft 261 kts 234°
2026-04-30 12:06 42.06628 2.64434 12639 ft 263 kts 234°
2026-04-30 12:06 42.05536 2.62449 13220 ft 266 kts 232°
2026-04-30 12:06 42.04256 2.60637 13734 ft 271 kts 220°
2026-04-30 12:06 42.02692 2.59075 14039 ft 285 kts 214°
2026-04-30 12:07 42.00926 2.57670 14330 ft 299 kts 204°
2026-04-30 12:07 41.98904 2.56758 14611 ft 314 kts 192°
2026-04-30 12:07 41.96666 2.56255 14895 ft 329 kts 188°
2026-04-30 12:07 41.94381 2.55562 15222 ft 341 kts 201°
2026-04-30 12:08 41.92324 2.53967 15787 ft 346 kts 220°
2026-04-30 12:08 41.90664 2.51592 16374 ft 349 kts 235°
2026-04-30 12:08 41.89438 2.48751 16963 ft 353 kts 245°
2026-04-30 12:08 41.88562 2.45610 17546 ft 356 kts 255°
2026-04-30 12:09 41.88013 2.42345 18125 ft 359 kts 260°
2026-04-30 12:09 41.87498 2.37923 18878 ft 363 kts 262°
2026-04-30 12:09 41.87258 2.35667 19249 ft 365 kts 262°
2026-04-30 12:09 41.86886 2.32330 19785 ft 368 kts 261°
2026-04-30 12:10 41.86484 2.28946 20314 ft 371 kts 261°
2026-04-30 12:10 41.86055 2.25496 20836 ft 374 kts 260°
2026-04-30 12:10 41.85610 2.22008 21350 ft 377 kts 260°
2026-04-30 12:10 41.85161 2.18545 21838 ft 380 kts 260°
2026-04-30 12:11 41.84694 2.14981 22324 ft 383 kts 260°
2026-04-30 12:11 41.84230 2.11454 22792 ft 386 kts 260°
2026-04-30 12:11 41.83756 2.07868 23252 ft 388 kts 260°
2026-04-30 12:11 41.83275 2.04299 23696 ft 391 kts 259°
2026-04-30 12:12 41.82762 2.00649 24138 ft 394 kts 259°
2026-04-30 12:12 41.82246 1.97035 24563 ft 396 kts 259°
2026-04-30 12:12 41.81716 1.93358 24984 ft 399 kts 259°
2026-04-30 12:12 41.81186 1.89683 25390 ft 401 kts 259°
2026-04-30 12:13 41.80652 1.85984 25788 ft 404 kts 259°
2026-04-30 12:13 41.80117 1.82278 26176 ft 406 kts 259°
2026-04-30 12:13 41.79575 1.78527 26605 ft 407 kts 259°
2026-04-30 12:13 41.79036 1.74798 26971 ft 410 kts 259°
2026-04-30 12:14 41.78483 1.70979 27329 ft 412 kts 259°
2026-04-30 12:14 41.77935 1.67200 27682 ft 415 kts 259°
2026-04-30 12:14 41.77383 1.63403 28030 ft 417 kts 259°
2026-04-30 12:14 41.76825 1.59569 28369 ft 419 kts 259°
2026-04-30 12:15 41.76264 1.55693 28701 ft 421 kts 259°
2026-04-30 12:15 41.75703 1.51808 29025 ft 423 kts 259°
2026-04-30 12:15 41.75141 1.47919 29341 ft 425 kts 259°
2026-04-30 12:15 41.74572 1.43996 29651 ft 428 kts 259°
2026-04-30 12:16 41.74001 1.40060 29955 ft 430 kts 259°
2026-04-30 12:16 41.73426 1.36115 30252 ft 432 kts 259°
2026-04-30 12:16 41.72855 1.32208 30538 ft 434 kts 258°
2026-04-30 12:16 41.72277 1.28262 30822 ft 435 kts 258°
2026-04-30 12:17 41.71098 1.20246 31376 ft 439 kts 259°
2026-04-30 12:17 41.70498 1.16221 31636 ft 441 kts 258°
2026-04-30 12:17 41.69502 1.10866 31982 ft 444 kts 253°
2026-04-30 12:18 41.68851 1.08226 32155 ft 445 kts 250°
2026-04-30 12:18 41.67758 1.04340 32411 ft 447 kts 248°
2026-04-30 12:18 41.66576 1.00463 32662 ft 448 kts 247°
2026-04-30 12:18 41.65362 0.96616 32906 ft 450 kts 247°
2026-04-30 12:19 41.64130 0.92758 33147 ft 452 kts 247°
2026-04-30 12:19 41.62882 0.88855 33386 ft 454 kts 247°
2026-04-30 12:19 41.61630 0.84925 33621 ft 455 kts 247°
2026-04-30 12:19 41.60390 0.81019 33846 ft 457 kts 247°
2026-04-30 12:20 41.59158 0.77126 34169 ft 455 kts 247°
2026-04-30 12:20 41.57933 0.73244 34518 ft 454 kts 247°
2026-04-30 12:20 41.56704 0.69354 34810 ft 453 kts 247°
2026-04-30 12:20 41.55393 0.65490 35077 ft 453 kts 244°
2026-04-30 12:21 41.53894 0.61765 35353 ft 452 kts 240°
2026-04-30 12:21 41.52274 0.58157 35606 ft 451 kts 238°
2026-04-30 12:21 41.50602 0.54636 35856 ft 451 kts 237°
2026-04-30 12:21 41.48898 0.51129 35998 ft 449 kts 237°
2026-04-30 12:22 41.45517 0.44236 36003 ft 441 kts 237°
2026-04-30 12:22 41.42134 0.37311 36002 ft 442 kts 237°
2026-04-30 12:23 41.38839 0.30626 36001 ft 442 kts 234°
2026-04-30 12:23 41.34652 0.24663 36003 ft 441 kts 216°
2026-04-30 12:24 41.29174 0.20914 36003 ft 442 kts 199°
2026-04-30 12:24 41.23215 0.18777 36002 ft 442 kts 191°
2026-04-30 12:25 41.17153 0.17312 36001 ft 442 kts 189°
2026-04-30 12:25 41.11068 0.15868 36001 ft 442 kts 193°
2026-04-30 12:26 41.05128 0.13657 36001 ft 442 kts 197°
2026-04-30 12:26 40.99297 0.11030 35998 ft 441 kts 205°
2026-04-30 12:27 40.94172 0.06498 36003 ft 442 kts 222°
2026-04-30 12:27 40.90128 0.00395 36000 ft 441 kts 239°
2026-04-30 12:28 40.87876 -0.06997 36002 ft 442 kts 256°
2026-04-30 12:28 40.87027 -0.14843 36001 ft 442 kts 267°
2026-04-30 12:29 40.86964 -0.23072 36001 ft 442 kts 271°
2026-04-30 12:29 40.87075 -0.31168 36001 ft 442 kts 271°
2026-04-30 12:30 40.87159 -0.39312 36001 ft 442 kts 271°
2026-04-30 12:30 40.87193 -0.47463 36001 ft 442 kts 270°
2026-04-30 12:31 40.87193 -0.55556 36001 ft 442 kts 270°
2026-04-30 12:31 40.87174 -0.63738 36001 ft 442 kts 270°
2026-04-30 12:32 40.87141 -0.71720 36001 ft 442 kts 269°
2026-04-30 12:32 40.86642 -0.79790 35999 ft 442 kts 258°
2026-04-30 12:33 40.84984 -0.87588 36001 ft 442 kts 251°
2026-04-30 12:33 40.82854 -0.95267 36000 ft 442 kts 249°
2026-04-30 12:34 40.80658 -1.02883 36000 ft 442 kts 249°
2026-04-30 12:34 40.78479 -1.10506 36000 ft 442 kts 249°
2026-04-30 12:35 40.76324 -1.18122 36000 ft 442 kts 250°
2026-04-30 12:35 40.74173 -1.25760 36000 ft 442 kts 250°
2026-04-30 12:36 40.72034 -1.33366 36000 ft 442 kts 250°
2026-04-30 12:36 40.69888 -1.40991 36000 ft 442 kts 250°
2026-04-30 12:37 40.67748 -1.48576 36000 ft 442 kts 250°
2026-04-30 12:37 40.65586 -1.56218 36000 ft 442 kts 250°
2026-04-30 12:38 40.63435 -1.63793 36000 ft 442 kts 250°
2026-04-30 12:38 40.61321 -1.71222 36000 ft 442 kts 249°
2026-04-30 12:39 40.59224 -1.78563 36000 ft 442 kts 249°
2026-04-30 12:39 40.57087 -1.86028 36000 ft 442 kts 249°
2026-04-30 12:40 40.55053 -1.93109 36000 ft 442 kts 249°
2026-04-30 12:40 40.52859 -2.00727 36000 ft 442 kts 249°
2026-04-30 12:41 40.50680 -2.08271 36000 ft 442 kts 249°
2026-04-30 12:41 40.48487 -2.15832 36000 ft 442 kts 249°
2026-04-30 12:42 40.46299 -2.23347 36001 ft 442 kts 249°
2026-04-30 12:42 40.43707 -2.32225 36001 ft 442 kts 249°
2026-04-30 12:43 40.41880 -2.38465 36001 ft 442 kts 249°
2026-04-30 12:43 40.39652 -2.46054 36001 ft 442 kts 249°
2026-04-30 12:44 40.37424 -2.53635 36001 ft 442 kts 250°
2026-04-30 12:44 40.35510 -2.61327 36001 ft 442 kts 254°
2026-04-30 12:45 40.33926 -2.68818 36001 ft 442 kts 255°
2026-04-30 12:45 40.32274 -2.76747 36001 ft 442 kts 254°
2026-04-30 12:46 40.30633 -2.84492 36001 ft 442 kts 254°
2026-04-30 12:46 40.28958 -2.92253 36001 ft 442 kts 254°
2026-04-30 12:47 40.27259 -3.00033 36001 ft 442 kts 254°
2026-04-30 12:47 40.25552 -3.07794 36001 ft 442 kts 254°
2026-04-30 12:48 40.23834 -3.15548 36001 ft 442 kts 254°
2026-04-30 12:48 40.22116 -3.23267 36001 ft 442 kts 254°
2026-04-30 12:49 40.20391 -3.31007 36001 ft 442 kts 254°
2026-04-30 12:49 40.18665 -3.38736 36001 ft 442 kts 254°
2026-04-30 12:50 40.16938 -3.46442 36001 ft 442 kts 254°
2026-04-30 12:50 40.15193 -3.54203 36001 ft 442 kts 254°
2026-04-30 12:51 40.13462 -3.61874 36001 ft 442 kts 254°
2026-04-30 12:51 40.11751 -3.69429 36001 ft 442 kts 253°
2026-04-30 12:52 40.09994 -3.77156 36001 ft 442 kts 253°
2026-04-30 12:52 40.08228 -3.84890 36001 ft 442 kts 253°
2026-04-30 12:53 40.06457 -3.92615 36001 ft 442 kts 253°
2026-04-30 12:53 40.04692 -4.00291 36001 ft 442 kts 253°
2026-04-30 12:54 40.02909 -4.08017 36001 ft 442 kts 253°
2026-04-30 12:54 40.01128 -4.15709 36001 ft 442 kts 253°
2026-04-30 12:55 39.99333 -4.23434 36001 ft 442 kts 253°
2026-04-30 12:55 39.97543 -4.31114 36001 ft 442 kts 253°
2026-04-30 12:56 39.95813 -4.38803 36001 ft 442 kts 255°
2026-04-30 12:56 39.94238 -4.46582 36001 ft 442 kts 256°
2026-04-30 12:57 39.92697 -4.54340 36001 ft 442 kts 256°
2026-04-30 12:57 39.91140 -4.62105 36001 ft 442 kts 256°
2026-04-30 12:58 39.89608 -4.69649 36001 ft 442 kts 255°
2026-04-30 12:58 39.88028 -4.77364 36001 ft 442 kts 255°
2026-04-30 12:59 39.86424 -4.85143 36001 ft 442 kts 255°
2026-04-30 12:59 39.84820 -4.92883 36001 ft 442 kts 255°
2026-04-30 13:00 39.83211 -5.00616 36001 ft 442 kts 255°
2026-04-30 13:00 39.81594 -5.08358 36001 ft 442 kts 255°
2026-04-30 13:01 39.79982 -5.16054 36001 ft 442 kts 255°
2026-04-30 13:01 39.78347 -5.23825 36001 ft 442 kts 255°
2026-04-30 13:02 39.76713 -5.31564 36001 ft 442 kts 255°
2026-04-30 13:02 39.74800 -5.40591 36001 ft 442 kts 255°
2026-04-30 13:03 39.73439 -5.46996 36001 ft 442 kts 255°
2026-04-30 13:03 39.71797 -5.54693 36001 ft 442 kts 255°
2026-04-30 13:04 39.70141 -5.62427 36001 ft 442 kts 255°
2026-04-30 13:04 39.68526 -5.69945 36001 ft 442 kts 254°
2026-04-30 13:05 39.66857 -5.77688 36001 ft 442 kts 254°
2026-04-30 13:06 39.64358 -5.89228 36001 ft 442 kts 254°
2026-04-30 13:06 39.62683 -5.96928 36001 ft 442 kts 254°
2026-04-30 13:07 39.61006 -6.04608 36001 ft 442 kts 254°
2026-04-30 13:07 39.59312 -6.12345 36001 ft 442 kts 254°
2026-04-30 13:08 39.57620 -6.20040 36001 ft 442 kts 254°
2026-04-30 13:08 39.55933 -6.27692 36001 ft 442 kts 254°
2026-04-30 13:09 39.54230 -6.35386 36001 ft 442 kts 254°
2026-04-30 13:09 39.52424 -6.42974 36001 ft 442 kts 250°
2026-04-30 13:10 39.49943 -6.50343 36001 ft 442 kts 244°
2026-04-30 13:10 39.47205 -6.57462 36001 ft 442 kts 243°
2026-04-30 13:11 39.44406 -6.64593 36001 ft 442 kts 243°
2026-04-30 13:11 39.41671 -6.71594 36001 ft 442 kts 243°
2026-04-30 13:12 39.38902 -6.78716 35961 ft 441 kts 243°
2026-04-30 13:12 39.37532 -6.82247 35655 ft 437 kts 243°
2026-04-30 13:12 39.36176 -6.85749 35205 ft 438 kts 243°
2026-04-30 13:13 39.33433 -6.92918 34461 ft 441 kts 244°
2026-04-30 13:13 39.32111 -6.96431 34449 ft 432 kts 244°
2026-04-30 13:13 39.29564 -7.03328 33972 ft 421 kts 245°
2026-04-30 13:14 39.28319 -7.06795 33131 ft 428 kts 246°
2026-04-30 13:14 39.27106 -7.10355 32290 ft 433 kts 247°
2026-04-30 13:14 39.24951 -7.17510 31677 ft 416 kts 251°
2026-04-30 13:15 39.24014 -7.21040 31353 ft 409 kts 252°
2026-04-30 13:15 39.21800 -7.27854 29625 ft 422 kts 237°
2026-04-30 13:15 39.20106 -7.31029 28739 ft 428 kts 234°
2026-04-30 13:16 39.18352 -7.34194 28014 ft 429 kts 235°
2026-04-30 13:16 39.16696 -7.37346 27414 ft 427 kts 237°
2026-04-30 13:16 39.15100 -7.40624 26857 ft 424 kts 239°
2026-04-30 13:17 39.12205 -7.47190 25960 ft 418 kts 242°
2026-04-30 13:17 39.10829 -7.50516 25507 ft 416 kts 243°
2026-04-30 13:17 39.08047 -7.57072 24627 ft 410 kts 241°
2026-04-30 13:18 39.06640 -7.60234 24199 ft 407 kts 240°
2026-04-30 13:18 39.03824 -7.66547 23427 ft 398 kts 241°
2026-04-30 13:18 39.02582 -7.69577 23105 ft 392 kts 243°
2026-04-30 13:19 39.01353 -7.72772 22629 ft 390 kts 244°
2026-04-30 13:19 39.00163 -7.75951 22138 ft 387 kts 244°
2026-04-30 13:19 38.99001 -7.79072 21539 ft 383 kts 244°
2026-04-30 13:19 38.97854 -7.82142 20934 ft 380 kts 244°
2026-04-30 13:20 38.96706 -7.85197 20330 ft 377 kts 244°
2026-04-30 13:20 38.95562 -7.88223 19731 ft 373 kts 244°
2026-04-30 13:20 38.94422 -7.91221 19135 ft 370 kts 244°
2026-04-30 13:20 38.93295 -7.94176 18543 ft 367 kts 244°
2026-04-30 13:21 38.92181 -7.97089 18057 ft 359 kts 244°
2026-04-30 13:21 38.91186 -7.99996 17745 ft 346 kts 251°
2026-04-30 13:21 38.90698 -8.02967 17452 ft 332 kts 267°
2026-04-30 13:22 38.91096 -8.08765 16518 ft 320 kts 278°
2026-04-30 13:22 38.91432 -8.11579 15975 ft 317 kts 279°
2026-04-30 13:22 38.92079 -8.17155 14899 ft 312 kts 278°
2026-04-30 13:23 38.92384 -8.19949 14289 ft 309 kts 278°
2026-04-30 13:23 38.92953 -8.25333 13267 ft 297 kts 278°
2026-04-30 13:24 38.93486 -8.30434 12527 ft 279 kts 278°
2026-04-30 13:24 38.94000 -8.35371 11556 ft 278 kts 278°
2026-04-30 13:25 38.94515 -8.40322 10800 ft 277 kts 278°
2026-04-30 13:25 38.95023 -8.45233 10108 ft 273 kts 278°
2026-04-30 13:26 38.95307 -8.47972 9721 ft 272 kts 278°